Weather History for Wildwood, NJ

Change the Weather History Date:

Friday, May 2, 2014

  Actual Average Record
Temperature  
Mean Temperature 60 °F -  
Max Temperature 66 °F 64 °F 80 °F (2001)
Min Temperature 53 °F 48 °F 39 °F (2005)
Degree Days  
Heating Degree Days 6    
Growing Degree Days 10 (Base 50)    
Moisture  
Dew Point 43 °F    
Average Humidity 55    
Maximum Humidity 72    
Minimum Humidity 37    
Precipitation  
Precipitation 0.00 in - - ()
Sea Level Pressure  
Sea Level Pressure 29.85 in    
Wind  
Wind Speed 7 mph (West)    
Max Wind Speed 14 mph    
Max Gust Speed 20 mph    
Visibility 10 miles    
Events      
Averages and records for this station are not official NWS values.
T = Trace of Precipitation, MM = Missing Value Source: NWS Daily Summary

Daily Weather History Graph

Daily Weather History Graph

Search for Another Location

Airport:

Trip Planner

Search our weather history database for the weather conditions in past years. The results will help you decide how hot, cold, wet, or windy it might be!

Date:

Astronomy

May. 02, 2014 Rise Set
Actual Time 6:00 AM EDT 7:53 PM EDT
Civil Twilight 5:31 AM EDT 8:22 PM EDT
Nautical Twilight 4:56 AM EDT 8:57 PM EDT
Astronomical Twilight 4:18 AM EDT 9:35 PM EDT
Moon 8:36 AM EDT (5/2) 11:13 PM EDT (5/2)
Length of Visible Light 14h 50m
Length of Day
13h 52m
Waxing Crescent, 12% of the Moon is Illuminated
May 2
Waxing Crescent
May 6
First Quarter
May 14
Full
May 21
Last Quarter
May 28
New

Hourly Weather History & Observations

Time (EDT) Temp. Dew Point Humidity Pressure Visibility Wind Dir Wind Speed Gust Speed Precip Events Conditions
12:15 AM - - N/A% - - North - - N/A   Unknown
12:35 AM - - N/A% - - North - - N/A   Unknown
12:55 AM - - N/A% - - North - - N/A   Unknown
1:15 AM - - N/A% - - North - - N/A   Unknown
1:35 AM - - N/A% - - North - - N/A   Unknown
1:55 AM - - N/A% - - North - - N/A   Unknown
2:15 AM - - N/A% - - North - - N/A   Unknown
2:35 AM - - N/A% - - North - - N/A   Unknown
2:55 AM - - N/A% - - North - - N/A   Unknown
3:15 AM - - N/A% - - North - - N/A   Unknown
3:35 AM - - N/A% - - North - - N/A   Unknown
3:55 AM 55.4 °F 46.4 °F 72% 29.79 in 10.0 mi NW 5.8 mph - N/A   Unknown
4:15 AM 55.4 °F 46.4 °F 72% 29.80 in 10.0 mi NW 4.6 mph - N/A   Mostly Cloudy
4:35 AM 57.2 °F 48.2 °F 72% 29.80 in 10.0 mi WNW 6.9 mph - N/A   Mostly Cloudy
4:55 AM 55.4 °F 46.4 °F 72% 29.79 in 10.0 mi WNW 5.8 mph - N/A   Scattered Clouds
5:15 AM 55.4 °F 46.4 °F 72% 29.79 in 10.0 mi NW 4.6 mph - N/A   Mostly Cloudy
5:35 AM 57.2 °F 46.4 °F 67% 29.80 in 10.0 mi NW 5.8 mph - N/A   Overcast
5:55 AM 57.2 °F 46.4 °F 67% 29.81 in 10.0 mi WNW 6.9 mph - N/A   Overcast
6:15 AM 57.2 °F 44.6 °F 63% 29.82 in 10.0 mi WNW 5.8 mph - N/A   Overcast
6:35 AM 57.2 °F 46.4 °F 67% 29.82 in 10.0 mi NW 5.8 mph - N/A   Mostly Cloudy
6:55 AM 57.2 °F 46.4 °F 67% 29.83 in 10.0 mi WNW 5.8 mph - N/A   Overcast
7:15 AM 57.2 °F 44.6 °F 63% 29.83 in 10.0 mi NW 6.9 mph - N/A   Overcast
7:35 AM 57.2 °F 44.6 °F 63% 29.83 in 10.0 mi WNW 4.6 mph - N/A   Overcast
7:55 AM 57.2 °F 46.4 °F 67% 29.84 in 10.0 mi WNW 6.9 mph - N/A   Overcast
8:15 AM 57.2 °F 46.4 °F 67% 29.84 in 10.0 mi West 8.1 mph - N/A   Overcast
8:35 AM - - N/A% - 9.0 mi North - - N/A   Mostly Cloudy
8:55 AM - - N/A% - - North - - N/A   Unknown
9:15 AM - - N/A% - - North - - N/A   Unknown
9:35 AM - - N/A% - - North - - N/A   Unknown
9:55 AM - - N/A% - - North - - N/A   Unknown
10:15 AM - - N/A% - - North - - N/A   Unknown
10:35 AM 62.6 °F 42.8 °F 48% 29.86 in 10.0 mi West 8.1 mph - N/A   Unknown
10:55 AM 62.6 °F 42.8 °F 48% 29.87 in 10.0 mi West 10.4 mph - N/A   Clear
11:15 AM 62.6 °F 41.0 °F 45% 29.86 in 10.0 mi West 8.1 mph - N/A   Clear
11:35 AM 64.4 °F 41.0 °F 42% 29.86 in 10.0 mi WNW 8.1 mph - N/A   Clear
11:55 AM 64.4 °F 39.2 °F 40% 29.86 in 10.0 mi West 10.4 mph - N/A   Clear
12:15 PM 62.6 °F 39.2 °F 42% 29.85 in 10.0 mi West 10.4 mph - N/A   Clear
12:35 PM 64.4 °F 39.2 °F 40% 29.85 in 10.0 mi West 6.9 mph - N/A   Clear
12:55 PM 64.4 °F 39.2 °F 40% 29.85 in 10.0 mi West 11.5 mph - N/A   Clear
1:15 PM 64.4 °F 41.0 °F 42% 29.85 in 10.0 mi West 13.8 mph 19.6 mph N/A   Clear
1:35 PM 64.4 °F 41.0 °F 42% 29.85 in 10.0 mi West 10.4 mph - N/A   Clear
1:55 PM 64.4 °F 39.2 °F 40% 29.85 in 10.0 mi West 8.1 mph - N/A   Clear
2:15 PM 64.4 °F 41.0 °F 42% 29.85 in 10.0 mi WSW 9.2 mph - N/A   Clear
2:35 PM 64.4 °F 42.8 °F 45% 29.85 in 10.0 mi WSW 8.1 mph - N/A   Clear
2:55 PM 64.4 °F 42.8 °F 45% 29.84 in 10.0 mi West 10.4 mph - N/A   Clear
3:15 PM 64.4 °F 41.0 °F 42% 29.83 in 10.0 mi WSW 10.4 mph - N/A   Clear
3:35 PM 64.4 °F 41.0 °F 42% 29.83 in 10.0 mi SW 10.4 mph - N/A   Clear
3:55 PM 66.2 °F 39.2 °F 37% 29.82 in 10.0 mi WSW 9.2 mph - N/A   Clear
4:15 PM 66.2 °F 39.2 °F 37% 29.82 in 10.0 mi WSW 11.5 mph - N/A   Clear
4:35 PM 66.2 °F 39.2 °F 37% 29.82 in 10.0 mi West 11.5 mph - N/A   Clear
4:55 PM 66.2 °F 39.2 °F 37% 29.82 in 10.0 mi WSW 10.4 mph - N/A   Clear
5:15 PM 66.2 °F 39.2 °F 37% 29.82 in 10.0 mi WSW 10.4 mph - N/A   Clear
5:35 PM 66.2 °F 39.2 °F 37% 29.83 in 10.0 mi WSW 6.9 mph - N/A   Clear
5:55 PM 66.2 °F 39.2 °F 37% 29.84 in 10.0 mi WSW 8.1 mph - N/A   Mostly Cloudy
6:15 PM 64.4 °F 41.0 °F 42% 29.84 in 10.0 mi South 9.2 mph - N/A   Mostly Cloudy
6:35 PM 62.6 °F 44.6 °F 52% 29.85 in 10.0 mi South 6.9 mph - N/A   Overcast
6:55 PM 62.6 °F 44.6 °F 52% 29.85 in 10.0 mi SSE 8.1 mph - N/A   Overcast
7:15 PM 62.6 °F 42.8 °F 48% 29.85 in 10.0 mi SSE 5.8 mph - N/A   Overcast
7:35 PM 60.8 °F 42.8 °F 52% 29.86 in 10.0 mi SSE 3.5 mph - N/A   Overcast
7:55 PM 59.0 °F 42.8 °F 55% 29.86 in 10.0 mi Calm Calm - N/A   Overcast
8:15 PM 57.2 °F 44.6 °F 63% 29.86 in 10.0 mi Calm Calm - N/A   Overcast
8:35 PM 57.2 °F 44.6 °F 63% 29.88 in 10.0 mi SSE 5.8 mph - N/A   Overcast
8:55 PM 57.2 °F 44.6 °F 63% 29.88 in 10.0 mi Calm Calm - N/A   Overcast
9:15 PM 57.2 °F 44.6 °F 63% 29.88 in 10.0 mi Calm Calm - N/A   Overcast
9:35 PM 55.4 °F 44.6 °F 67% 29.89 in 10.0 mi SSE 3.5 mph - N/A   Mostly Cloudy
9:55 PM 55.4 °F 46.4 °F 72% 29.89 in 10.0 mi Calm Calm - N/A   Mostly Cloudy
10:15 PM 55.4 °F 46.4 °F 72% 29.89 in 10.0 mi Calm Calm - N/A   Partly Cloudy
10:35 PM 53.6 °F 44.6 °F 72% 29.90 in 10.0 mi SSW 3.5 mph - N/A   Partly Cloudy
10:55 PM 53.6 °F 44.6 °F 72% 29.89 in 10.0 mi SW 3.5 mph - N/A   Clear
11:15 PM 53.6 °F 44.6 °F 72% 29.89 in 10.0 mi Calm Calm - N/A   Scattered Clouds
11:35 PM 53.6 °F 44.6 °F 72% 29.89 in 10.0 mi Calm Calm - N/A   Mostly Cloudy
11:55 PM 53.6 °F 44.6 °F 72% 29.91 in 10.0 mi NW 5.8 mph - N/A   Overcast